Weather History for KUIN - February, 2013

Change the Weather History Date:

Friday, February 8, 2013

  Actual Average Record
Temperature  
Mean Temperature 32 °F 29 °F  
Max Temperature 34 °F 37 °F 69 °F (1990)
Min Temperature 29 °F 21 °F -12 °F (1933)
Degree Days  
Heating Degree Days 33 36  
Month to date heating degree days 268 295  
Since 1 July heating degree days 3419 3681  
Cooling Degree Days 0 0  
Month to date cooling degree days 0 0  
Year to date cooling degree days 0 0  
Moisture  
Dew Point 26 °F    
Average Humidity 81    
Maximum Humidity 92    
Minimum Humidity 69    
Precipitation  
Precipitation 0.00 in 0.07 in 1.09 in (1969)
Month to date precipitation 0.36 0.44  
Year to date precipitation 3.29 1.96  
Sea Level Pressure  
Sea Level Pressure 30.31 in    
Wind  
Wind Speed 9 mph (NNE)    
Max Wind Speed 20 mph    
Max Gust Speed 25 mph    
Visibility 9 miles    
Events      
T = Trace of Precipitation, MM = Missing Value Source: NWS Daily Summary

Daily Weather History Graph

Daily Weather History Graph

Search for Another Location

Airport or City:

Trip Planner

Search our weather history database for the weather conditions in past years. The results will help you decide how hot, cold, wet, or windy it might be!

Date:

Astronomy

Feb. 08, 2013 Rise Set
Actual Time 7:05 AM CST 5:32 PM CST
Civil Twilight 6:37 AM CST 6:00 PM CST
Nautical Twilight 6:05 AM CST 6:32 PM CST
Astronomical Twilight 5:34 AM CST 7:04 PM CST
Moon 5:34 AM CST (2/8) 4:06 PM CST (2/8)
Length of Visible Light 11h 23m
Length of Day
10h 27m
Waning Crescent, 3% of the Moon is Illuminated
Feb 8
Waning Crescent
Feb 10
New
Feb 17
First Quarter
Feb 25
Full
Mar 4
Last Quarter

Hourly Weather History & Observations

Time (CST) Temp. Windchill Dew Point Humidity Pressure Visibility Wind Dir Wind Speed Gust Speed Precip Events Conditions
12:54 AM 32.0 °F 21.2 °F 28.9 °F 88% 30.12 in 4.0 mi NNW 16.1 mph - N/A   Overcast
1:54 AM 32.0 °F 22.1 °F 28.9 °F 88% 30.14 in 4.0 mi NW 13.8 mph - N/A   Overcast
2:54 AM 32.0 °F 20.5 °F 28.9 °F 88% 30.17 in 4.0 mi NNW 18.4 mph - N/A   Overcast
3:54 AM 30.9 °F 20.7 °F 28.9 °F 92% 30.19 in 4.0 mi NNW 13.8 mph - N/A   Overcast
4:54 AM 32.0 °F 22.1 °F 27.0 °F 82% 30.22 in 10.0 mi North 13.8 mph - N/A   Overcast
5:31 AM 30.2 °F 19.8 °F 26.6 °F 86% 30.21 in 10.0 mi NNW 13.8 mph - N/A   Overcast
5:54 AM 30.2 °F 21.3 °F 26.6 °F 86% 30.22 in 10.0 mi NNW 10.4 mph - N/A   Overcast
6:47 AM 30.2 °F 19.8 °F 26.6 °F 86% 30.26 in 7.0 mi NNW 13.8 mph - N/A   Overcast
6:54 AM 30.9 °F 21.7 °F 28.0 °F 89% 30.28 in 7.0 mi North 11.5 mph - N/A   Overcast
7:54 AM 30.0 °F 20.5 °F 26.1 °F 85% 30.32 in 7.0 mi NNW 11.5 mph - N/A   Overcast
8:54 AM 30.0 °F 22.4 °F 26.1 °F 85% 30.34 in 7.0 mi NNW 8.1 mph - N/A   Overcast
9:54 AM 30.9 °F 24.3 °F 26.1 °F 82% 30.35 in 9.0 mi North 6.9 mph - N/A   Overcast
10:54 AM 30.9 °F 22.8 °F 26.1 °F 82% 30.37 in 10.0 mi North 9.2 mph - N/A   Overcast
11:54 AM 32.0 °F 24.8 °F 26.1 °F 79% 30.36 in 10.0 mi North 8.1 mph - N/A   Overcast
12:04 PM 33.8 °F 27.7 °F 24.8 °F 70% 30.34 in 10.0 mi North 6.9 mph - N/A   Overcast
12:54 PM 33.1 °F 26.9 °F 26.1 °F 75% 30.35 in 10.0 mi NNW 6.9 mph - N/A   Overcast
1:54 PM 34.0 °F 28.8 °F 26.1 °F 73% 30.34 in 10.0 mi NE 5.8 mph - N/A   Overcast
2:54 PM 33.1 °F - 25.0 °F 72% 30.36 in 10.0 mi Calm Calm - N/A   Overcast
3:54 PM 32.0 °F 26.4 °F 25.0 °F 75% 30.38 in 10.0 mi NNE 5.8 mph - N/A   Overcast
4:54 PM 32.0 °F - 25.0 °F 75% 30.38 in 10.0 mi Calm Calm - N/A   Overcast
5:54 PM 32.0 °F - 25.0 °F 75% 30.35 in 10.0 mi Calm Calm - N/A   Overcast
6:36 PM 32.0 °F 25.6 °F 26.6 °F 80% 30.33 in 10.0 mi ESE 6.9 mph - N/A   Overcast
6:54 PM 32.0 °F 25.6 °F 25.0 °F 75% 30.35 in 10.0 mi East 6.9 mph - N/A   Overcast
7:07 PM 32.0 °F 27.5 °F 24.8 °F 75% 30.33 in 10.0 mi ESE 4.6 mph - N/A   Overcast
7:54 PM 32.0 °F 26.4 °F 25.0 °F 75% 30.37 in 10.0 mi ESE 5.8 mph - N/A   Overcast
8:52 PM 30.2 °F 22.6 °F 24.8 °F 80% 30.35 in 10.0 mi SSE 8.1 mph - N/A   Overcast
8:54 PM 30.9 °F 24.3 °F 25.0 °F 79% 30.37 in 10.0 mi SSE 6.9 mph - N/A   Overcast
9:54 PM 30.0 °F 22.4 °F 24.1 °F 79% 30.36 in 10.0 mi SSE 8.1 mph - N/A   Overcast
10:54 PM 28.9 °F 21.1 °F 24.1 °F 82% 30.36 in 10.0 mi SSE 8.1 mph - N/A   Overcast
11:54 PM 30.0 °F 21.1 °F 24.1 °F 79% 30.35 in 10.0 mi SE 10.4 mph - N/A   Overcast